Regional Weather Roundup
Issued by NWS

Home | Current Version | Previous Version | Text Only | Print | Product List | Glossary On
Versions: 1 2 3 4 5 6 7 8 9 10 11 12 13 14 15 16 17 18 19 20 21 22 23 24 25 26 27 28 29 30 31 32 33 34 35 36 37 38 39 40 41 42 43 44 45 46 47 48 49 50
000
ASUS43 KLMK 261902
RWRKY
KENTUCKY REGIONAL WEATHER ROUNDUP
NATIONAL WEATHER SERVICE LOUISVILLE KY
300 PM EDT WED JUL 26 2017

NOTE "FAIR" INDICATES FEW OR NO CLOUDS BELOW 12,000 FEET
WITH NO SIGNIFICANT WEATHER AND/OR OBSTRUCTIONS TO VISIBILITY.

KYZ001>023-026-027-061>063-070>075-262000-
WESTERN AND SOUTH CENTRAL KENTUCKY

CITY           SKY/WX    TMP DP  RH WIND       PRES   REMARKS
PADUCAH        MOSUNNY   93  74  53 S6        30.03F HX 103
HENDERSON      MOSUNNY   92  78  63 SW7       30.03F HX 107
OWENSBORO      CLOUDY    93  79  63 S6        30.04F HX 110
HOPKINSVILLE   MOSUNNY   93  75  56 S6        30.05F HX 104
BOWLING GREEN  PTSUNNY   92  72  51 SE5       30.07F HX  99
GLASGOW        NOT AVBL
$$

KYZ024-025-028>034-038-045-046-053-262000-
NORTH CENTRAL KENTUCKY

CITY           SKY/WX    TMP DP  RH WIND       PRES   REMARKS
LOUISVILLE/SDF MOSUNNY   88  70  55 S10       30.06F HX  93
LOUISVILLE/LOU MOSUNNY   90  71  53 VRB5      30.08F HX  96
FORT KNOX      PTSUNNY   88  73  61 S7        30.07F HX  95
$$

KYZ035>037-039>044-047>052-055>060-089>105-262000-
NORTHEAST KENTUCKY

CITY           SKY/WX    TMP DP  RH WIND       PRES   REMARKS
LEXINGTON      SUNNY     87  67  51 W6        30.11F HX  90
COVINGTON      PTSUNNY   84  68  58 VRB3      30.10F
FRANKFORT      SUNNY     87  68  52 VRB3      30.09F HX  90
$$

KYZ054-064>069-076>088-106>120-262000-
SOUTHEAST KENTUCKY

CITY           SKY/WX    TMP DP  RH WIND       PRES   REMARKS
JACKSON        SUNNY     86  67  52 VRB5      30.15F
LONDON         PTSUNNY   86  65  49 W7        30.14F
SOMERSET       MOSUNNY   86  64  48 W5        30.13F
MIDDLESBORO    MOSUNNY   88  69  53 CALM      30.14S HX  92
MONTICELLO     PTCLDY    88  74  63 NW8       30.14F HX  96
$$





USA.gov is the U.S. government's official web portal to all federal, state and local government web resources and services.